Location: Bon Acre
(42.6442°N, 73.5758°W)
Time: 07:42:11
(UTC+00:00)

ISS - Visible Passes

Search period start: 09 February 2026 00:00
Search period end: 19 February 2026 00:00
Orbit: 414 x 429 km, 51.6° (Epoch: 8 February)

Date Brightness Start Highest point End Pass type
(mag) Time Alt. Az. Time Alt. Az. Time Alt. Az.
11 Feb -0.9 10:43:08 10° S 10:45:28 18° SE 10:47:48 10° E visible
12 Feb -0.5 09:57:51 10° SE 09:58:39 11° SE 09:59:27 10° ESE visible
13 Feb -3.0 10:44:44 10° SW 10:47:59 51° SE 10:51:15 10° ENE visible
14 Feb -2.1 10:00:05 25° S 10:01:01 30° SE 10:04:00 10° ENE visible
15 Feb -0.7 09:15:24 15° ESE 09:15:24 15° ESE 09:16:31 10° E visible
15 Feb -3.7 10:48:26 19° WSW 10:50:39 58° NNW 10:53:57 10° NE visible
16 Feb -3.9 10:03:34 88° E 10:03:34 88° E 10:06:54 10° ENE visible
17 Feb -1.1 09:18:33 20° ENE 09:18:33 20° ENE 09:19:45 10° ENE visible
17 Feb -2.6 10:51:33 17° WNW 10:53:27 28° NNW 10:56:25 10° NE visible
18 Feb -2.9 10:06:26 38° NNW 10:06:26 38° NNW 10:09:22 10° NE visible
